Location: Pic du Midi - T1M
(42.9366°N, 0.1426°E)
Time: 10:51:20
(UTC+01:00)

X-37B - Pass Details

Date: 19 June 2021
Orbit: 383 x 392 km, 45.0° (Epoch: 01 July)

Event Time Altitude Azimuth Distance (km) Brightness Sun altitude
Exits shadow 02:24:33 56° 347° (NNW) 459 1.1 -20.9°
Maximum altitude 02:24:39 56° 356° (N) 457 1.1 -20.9°
Drops below altitude 10° 02:27:45 10° 76° (ENE) 1,400 3.8 -20.7°
Sets 02:29:51 0° 81° (E) 2,255 4.9 -20.5°
